Time,TemperatureF,DewpointF,PressureIn,WindDirection,WindDirectionDegrees,WindSpeedMPH,WindSpeedGustMPH,Humidity,HourlyPrecipIn,Conditions,Clouds,dailyrainin,SolarRadiationWatts/m^2,SoftwareType,DateUTC
2013-04-02 00:00:00,31.6,17.3,30.05,NW,319,2.0,6.0,55,0.00,,---,0.00,0.00,VWS V14.01,2013-04-02 04:00:00,
2013-04-02 00:05:00,31.4,17.5,30.05,NW,316,0.0,3.0,56,0.00,,---,0.00,0.00,VWS V14.01,2013-04-02 04:05:00,
2013-04-02 00:10:00,31.3,17.4,30.05,NW,316,2.0,4.0,56,0.00,,---,0.00,0.00,VWS V14.01,2013-04-02 04:10:00,
2013-04-02 00:15:00,31.1,17.2,30.05,NW,313,3.0,6.0,56,0.00,,---,0.00,0.00,VWS V14.01,2013-04-02 04:15:00,
2013-04-02 00:20:00,31.0,17.2,30.05,NW,315,0.0,6.0,56,0.00,,---,0.00,0.00,VWS V14.01,2013-04-02 04:20:00,
2013-04-02 00:25:00,30.8,17.4,30.06,NW,313,4.0,6.0,57,0.00,,---,0.00,0.00,VWS V14.01,2013-04-02 04:25:00,
2013-04-02 00:30:00,30.7,17.3,30.06,WNW,300,0.0,1.0,57,0.00,,---,0.00,0.00,VWS V14.01,2013-04-02 04:30:00,
2013-04-02 00:35:00,30.6,17.2,30.06,WNW,300,0.0,2.0,57,0.00,,---,0.00,0.00,VWS V14.01,2013-04-02 04:35:00,
2013-04-02 00:41:00,30.4,17.0,30.06,WNW,300,0.0,2.0,57,0.00,,---,0.00,0.00,VWS V14.01,2013-04-02 04:41:00,
2013-04-02 00:46:00,30.3,16.9,30.07,NW,310,4.0,4.0,57,0.00,,---,0.00,0.00,VWS V14.01,2013-04-02 04:46:00,
2013-04-02 00:51:00,30.3,16.9,30.07,NW,307,2.0,4.0,57,0.00,,---,0.00,0.00,VWS V14.01,2013-04-02 04:51:00,
2013-04-02 00:56:00,30.2,16.8,30.07,NW,308,1.0,4.0,57,0.00,,---,0.00,0.00,VWS V14.01,2013-04-02 04:56:00,
2013-04-02 01:00:00,30.1,16.7,30.07,NW,308,0.0,4.0,57,0.00,,---,0.00,0.00,VWS V14.01,2013-04-02 05:00:00,
2013-04-02 01:01:00,30.1,16.7,30.07,NW,308,1.0,1.0,57,0.00,,---,0.00,0.00,VWS V14.01,2013-04-02 05:01:00,
2013-04-02 01:06:00,29.9,16.9,30.07,NW,308,0.0,2.0,58,0.00,,---,0.00,0.00,VWS V14.01,2013-04-02 05:06:00,
2013-04-02 01:11:00,29.7,16.8,30.07,NW,308,0.0,4.0,58,0.00,,---,0.00,0.00,VWS V14.01,2013-04-02 05:11:00,
2013-04-02 01:16:00,29.6,17.0,30.07,NW,308,0.0,4.0,59,0.00,,---,0.00,0.00,VWS V14.01,2013-04-02 05:16:00,
2013-04-02 01:21:00,29.3,16.8,30.07,NW,319,5.0,5.0,59,0.00,,---,0.00,0.00,VWS V14.01,2013-04-02 05:21:00,
2013-04-02 01:27:00,29.2,16.7,30.07,NW,317,4.0,6.0,59,0.00,,---,0.00,0.00,VWS V14.01,2013-04-02 05:27:00,
2013-04-02 01:30:00,29.2,16.7,30.07,NW,325,3.0,7.0,59,0.00,,---,0.00,0.00,VWS V14.01,2013-04-02 05:30:00,
2013-04-02 01:32:00,29.3,16.4,30.07,NNW,327,3.0,11.0,58,0.00,,---,0.00,0.00,VWS V14.01,2013-04-02 05:32:00,
2013-04-02 01:37:00,29.4,16.5,30.07,NW,316,2.0,11.0,58,0.00,,---,0.00,0.00,VWS V14.01,2013-04-02 05:37:00,
2013-04-02 01:42:00,29.5,16.2,30.07,NNW,343,3.0,11.0,57,0.00,,---,0.00,0.00,VWS V14.01,2013-04-02 05:42:00,
2013-04-02 01:47:00,29.5,16.6,30.07,North,350,2.0,11.0,58,0.00,,---,0.00,0.00,VWS V14.01,2013-04-02 05:47:00,
2013-04-02 01:52:00,29.4,16.5,30.08,NW,315,5.0,11.0,58,0.00,,---,0.00,0.00,VWS V14.01,2013-04-02 05:52:00,
2013-04-02 01:57:00,29.3,16.0,30.08,NNW,342,3.0,12.0,57,0.00,,---,0.00,0.00,VWS V14.01,2013-04-02 05:57:00,
2013-04-02 02:00:00,29.3,16.0,30.08,West,273,6.0,12.0,57,0.00,,---,0.00,0.00,VWS V14.01,2013-04-02 06:00:00,
2013-04-02 02:02:00,29.3,16.0,30.08,WNW,291,10.0,11.0,57,0.00,,---,0.00,0.00,VWS V14.01,2013-04-02 06:02:00,
2013-04-02 02:07:00,29.1,16.2,30.08,NW,317,14.0,14.0,58,0.00,,---,0.00,0.00,VWS V14.01,2013-04-02 06:07:00,
2013-04-02 02:12:00,29.0,15.7,30.08,NNW,342,8.0,14.0,57,0.00,,---,0.00,0.00,VWS V14.01,2013-04-02 06:12:00,
2013-04-02 02:17:00,29.0,15.7,30.08,NW,323,7.0,14.0,57,0.00,,---,0.00,0.00,VWS V14.01,2013-04-02 06:17:00,
2013-04-02 02:22:00,29.0,15.7,30.08,NW,320,4.0,14.0,57,0.00,,---,0.00,0.00,VWS V14.01,2013-04-02 06:22:00,
2013-04-02 02:27:00,28.9,15.6,30.08,NNW,340,6.0,14.0,57,0.00,,---,0.00,0.00,VWS V14.01,2013-04-02 06:27:00,
2013-04-02 02:30:00,28.9,15.6,30.08,NNW,339,1.0,14.0,57,0.00,,---,0.00,0.00,VWS V14.01,2013-04-02 06:30:00,
2013-04-02 02:32:00,28.9,15.6,30.08,NNW,338,1.0,3.0,57,0.00,,---,0.00,0.00,VWS V14.01,2013-04-02 06:32:00,
2013-04-02 02:37:00,28.8,15.5,30.08,NNW,327,3.0,7.0,57,0.00,,---,0.00,0.00,VWS V14.01,2013-04-02 06:37:00,
2013-04-02 02:42:00,28.8,15.5,30.08,NNW,327,2.0,7.0,57,0.00,,---,0.00,0.00,VWS V14.01,2013-04-02 06:42:00,
2013-04-02 02:47:00,28.6,15.3,30.08,NNW,327,1.0,7.0,57,0.00,,---,0.00,0.00,VWS V14.01,2013-04-02 06:47:00,
2013-04-02 02:52:00,28.4,15.1,30.08,NNW,339,3.0,7.0,57,0.00,,---,0.00,0.00,VWS V14.01,2013-04-02 06:52:00,
2013-04-02 02:57:00,28.2,14.9,30.08,NNW,346,1.0,7.0,57,0.00,,---,0.00,0.00,VWS V14.01,2013-04-02 06:57:00,
2013-04-02 03:00:00,28.1,14.8,30.08,North,355,0.0,7.0,57,0.00,,---,0.00,0.00,VWS V14.01,2013-04-02 07:00:00,
2013-04-02 03:02:00,28.1,14.8,30.08,North,355,0.0,1.0,57,0.00,,---,0.00,0.00,VWS V14.01,2013-04-02 07:02:00,
2013-04-02 03:07:00,28.0,15.1,30.08,North,355,0.0,2.0,58,0.00,,---,0.00,0.00,VWS V14.01,2013-04-02 07:07:00,
2013-04-02 03:12:00,27.8,15.0,30.08,NW,317,5.0,6.0,58,0.00,,---,0.00,0.00,VWS V14.01,2013-04-02 07:12:00,
2013-04-02 03:17:00,27.8,15.0,30.08,NNW,327,0.0,6.0,58,0.00,,---,0.00,0.00,VWS V14.01,2013-04-02 07:17:00,
2013-04-02 03:22:00,27.7,15.3,30.08,NW,315,0.0,6.0,59,0.00,,---,0.00,0.00,VWS V14.01,2013-04-02 07:22:00,
2013-04-02 03:27:00,27.6,15.2,30.08,NW,315,0.0,6.0,59,0.00,,---,0.00,0.00,VWS V14.01,2013-04-02 07:27:00,
2013-04-02 03:30:00,27.5,14.7,30.08,NW,313,0.0,6.0,58,0.00,,---,0.00,0.00,VWS V14.01,2013-04-02 07:30:00,
2013-04-02 03:32:00,27.5,15.1,30.08,NW,313,0.0,2.0,59,0.00,,---,0.00,0.00,VWS V14.01,2013-04-02 07:32:00,
2013-04-02 03:37:00,27.4,15.0,30.08,NW,313,0.0,3.0,59,0.00,,---,0.00,0.00,VWS V14.01,2013-04-02 07:37:00,
2013-04-02 03:42:00,27.2,15.2,30.08,NW,313,0.0,3.0,60,0.00,,---,0.00,0.00,VWS V14.01,2013-04-02 07:42:00,
2013-04-02 03:47:00,27.1,15.1,30.08,NW,313,0.0,3.0,60,0.00,,---,0.00,0.00,VWS V14.01,2013-04-02 07:47:00,
2013-04-02 03:52:00,26.9,15.3,30.08,NW,313,0.0,3.0,61,0.00,,---,0.00,0.00,VWS V14.01,2013-04-02 07:52:00,
2013-04-02 03:57:00,26.7,15.4,30.08,NW,313,1.0,3.0,62,0.00,,---,0.00,0.00,VWS V14.01,2013-04-02 07:57:00,
2013-04-02 04:00:00,26.6,15.4,30.08,NW,313,0.0,3.0,62,0.00,,---,0.00,0.00,VWS V14.01,2013-04-02 08:00:00,
2013-04-02 04:02:00,26.5,15.3,30.08,NW,313,0.0,1.0,62,0.00,,---,0.00,0.00,VWS V14.01,2013-04-02 08:02:00,
2013-04-02 04:07:00,26.3,15.1,30.08,NW,313,0.0,2.0,62,0.00,,---,0.00,0.00,VWS V14.01,2013-04-02 08:07:00,
2013-04-02 04:12:00,26.2,15.0,30.08,NW,313,0.0,2.0,62,0.00,,---,0.00,0.00,VWS V14.01,2013-04-02 08:12:00,
2013-04-02 04:17:00,26.0,15.1,30.08,NW,313,0.0,2.0,63,0.00,,---,0.00,0.00,VWS V14.01,2013-04-02 08:17:00,
2013-04-02 04:22:00,25.8,15.0,30.08,NW,313,0.0,2.0,63,0.00,,---,0.00,0.00,VWS V14.01,2013-04-02 08:22:00,
2013-04-02 04:27:00,25.7,15.2,30.08,NW,313,0.0,2.0,64,0.00,,---,0.00,0.00,VWS V14.01,2013-04-02 08:27:00,
2013-04-02 04:30:00,25.6,15.1,30.08,NW,313,0.0,2.0,64,0.00,,---,0.00,0.00,VWS V14.01,2013-04-02 08:30:00,
2013-04-02 04:32:00,25.5,15.0,30.08,NW,313,0.0,0.0,64,0.00,,---,0.00,0.00,VWS V14.01,2013-04-02 08:32:00,
2013-04-02 04:37:00,25.4,14.9,30.08,NW,313,0.0,1.0,64,0.00,,---,0.00,0.00,VWS V14.01,2013-04-02 08:37:00,
2013-04-02 04:42:00,25.3,14.8,30.08,NW,313,0.0,1.0,64,0.00,,---,0.00,0.00,VWS V14.01,2013-04-02 08:42:00,
2013-04-02 04:48:00,25.2,14.8,30.08,NW,311,0.0,4.0,64,0.00,,---,0.00,0.00,VWS V14.01,2013-04-02 08:48:00,
2013-04-02 04:53:00,25.2,15.1,30.09,NW,311,0.0,4.0,65,0.00,,---,0.00,0.00,VWS V14.01,2013-04-02 08:53:00,
2013-04-02 04:58:00,25.1,15.0,30.09,NW,311,0.0,4.0,65,0.00,,---,0.00,0.00,VWS V14.01,2013-04-02 08:58:00,
2013-04-02 05:00:00,25.0,14.9,30.09,NW,311,0.0,4.0,65,0.00,,---,0.00,0.00,VWS V14.01,2013-04-02 09:00:00,
2013-04-02 05:03:00,25.0,14.9,30.09,NW,311,1.0,2.0,65,0.00,,---,0.00,0.00,VWS V14.01,2013-04-02 09:03:00,
2013-04-02 05:08:00,24.9,15.2,30.09,NW,306,2.0,3.0,66,0.00,,---,0.00,0.00,VWS V14.01,2013-04-02 09:08:00,
2013-04-02 05:13:00,24.9,15.2,30.09,NW,306,0.0,3.0,66,0.00,,---,0.00,0.00,VWS V14.01,2013-04-02 09:13:00,
2013-04-02 05:18:00,24.9,15.2,30.09,NW,306,0.0,3.0,66,0.00,,---,0.00,0.00,VWS V14.01,2013-04-02 09:18:00,
2013-04-02 05:23:00,24.9,15.2,30.10,NW,306,0.0,3.0,66,0.00,,---,0.00,0.00,VWS V14.01,2013-04-02 09:23:00,
2013-04-02 05:28:00,24.8,15.1,30.10,NW,306,0.0,3.0,66,0.00,,---,0.00,0.00,VWS V14.01,2013-04-02 09:28:00,
2013-04-02 05:30:00,24.8,15.1,30.10,NW,306,0.0,3.0,66,0.00,,---,0.00,0.00,VWS V14.01,2013-04-02 09:30:00,
2013-04-02 05:33:00,24.7,15.0,30.10,NW,306,0.0,1.0,66,0.00,,---,0.00,0.00,VWS V14.01,2013-04-02 09:33:00,
2013-04-02 05:38:00,24.7,15.0,30.10,NW,306,0.0,1.0,66,0.00,,---,0.00,0.00,VWS V14.01,2013-04-02 09:38:00,
2013-04-02 05:43:00,24.6,14.9,30.10,NW,306,0.0,1.0,66,0.00,,---,0.00,0.00,VWS V14.01,2013-04-02 09:43:00,
2013-04-02 05:48:00,24.5,15.1,30.10,NW,306,1.0,2.0,67,0.00,,---,0.00,0.00,VWS V14.01,2013-04-02 09:48:00,
2013-04-02 05:53:00,24.4,15.0,30.11,NW,306,0.0,2.0,67,0.00,,---,0.00,0.00,VWS V14.01,2013-04-02 09:53:00,
2013-04-02 05:58:00,24.4,15.0,30.11,NW,306,0.0,2.0,67,0.00,,---,0.00,0.00,VWS V14.01,2013-04-02 09:58:00,
2013-04-02 06:00:00,24.3,14.9,30.11,NW,306,0.0,2.0,67,0.00,,---,0.00,0.00,VWS V14.01,2013-04-02 10:00:00,
2013-04-02 06:03:00,24.3,14.9,30.12,NW,306,0.0,0.0,67,0.00,,---,0.00,0.00,VWS V14.01,2013-04-02 10:03:00,
2013-04-02 06:08:00,24.3,14.9,30.12,NW,306,0.0,0.0,67,0.00,,---,0.00,0.00,VWS V14.01,2013-04-02 10:08:00,
2013-04-02 06:13:00,24.1,14.7,30.12,NW,306,0.0,1.0,67,0.00,,---,0.00,0.00,VWS V14.01,2013-04-02 10:13:00,
2013-04-02 06:18:00,24.0,14.6,30.12,NW,306,0.0,1.0,67,0.00,,---,0.00,0.00,VWS V14.01,2013-04-02 10:18:00,
2013-04-02 06:23:00,24.0,15.0,30.12,NW,306,0.0,2.0,68,0.00,,---,0.00,0.00,VWS V14.01,2013-04-02 10:23:00,
2013-04-02 06:28:00,24.0,15.0,30.13,NW,306,0.0,2.0,68,0.00,,---,0.00,0.00,VWS V14.01,2013-04-02 10:28:00,
2013-04-02 06:30:00,23.9,14.9,30.13,NW,306,0.0,2.0,68,0.00,,---,0.00,0.00,VWS V14.01,2013-04-02 10:30:00,
2013-04-02 06:33:00,23.9,14.9,30.13,NW,306,0.0,1.0,68,0.00,,---,0.00,0.00,VWS V14.01,2013-04-02 10:33:00,
2013-04-02 06:38:00,23.8,14.8,30.13,NW,306,0.0,1.0,68,0.00,,---,0.00,0.00,VWS V14.01,2013-04-02 10:38:00,
2013-04-02 06:43:00,23.8,14.8,30.13,NW,306,0.0,1.0,68,0.00,,---,0.00,0.00,VWS V14.01,2013-04-02 10:43:00,
2013-04-02 06:48:00,23.8,14.8,30.14,NW,306,1.0,1.0,68,0.00,,---,0.00,0.00,VWS V14.01,2013-04-02 10:48:00,
2013-04-02 06:53:00,23.8,14.8,30.14,NW,306,1.0,2.0,68,0.00,,---,0.00,0.00,VWS V14.01,2013-04-02 10:53:00,
2013-04-02 06:58:00,23.7,14.7,30.14,NW,306,0.0,2.0,68,0.00,,---,0.00,0.00,VWS V14.01,2013-04-02 10:58:00,
2013-04-02 07:00:00,23.7,14.7,30.14,NW,306,0.0,2.0,68,0.00,,---,0.00,0.00,VWS V14.01,2013-04-02 11:00:00,
2013-04-02 07:03:00,23.7,14.7,30.15,NW,306,1.0,3.0,68,0.00,,---,0.00,0.00,VWS V14.01,2013-04-02 11:03:00,
2013-04-02 07:08:00,23.7,14.7,30.15,NW,306,0.0,3.0,68,0.00,,---,0.00,0.00,VWS V14.01,2013-04-02 11:08:00,
2013-04-02 07:13:00,23.7,14.7,30.15,NW,306,0.0,3.0,68,0.00,,---,0.00,5.00,VWS V14.01,2013-04-02 11:13:00,
2013-04-02 07:19:00,23.6,14.6,30.15,NW,306,0.0,3.0,68,0.00,,---,0.00,9.00,VWS V14.01,2013-04-02 11:19:00,
2013-04-02 07:24:00,23.6,14.9,30.16,NW,306,1.0,3.0,69,0.00,,---,0.00,12.00,VWS V14.01,2013-04-02 11:24:00,
2013-04-02 07:29:00,23.6,14.9,30.16,NW,306,0.0,3.0,69,0.00,,---,0.00,14.00,VWS V14.01,2013-04-02 11:29:00,
2013-04-02 07:30:00,23.6,14.9,30.16,NW,306,0.0,3.0,69,0.00,,---,0.00,16.00,VWS V14.01,2013-04-02 11:30:00,
2013-04-02 07:34:00,23.6,14.9,30.16,NW,306,0.0,1.0,69,0.00,,---,0.00,18.00,VWS V14.01,2013-04-02 11:34:00,
2013-04-02 07:39:00,23.6,15.3,30.16,NW,306,0.0,1.0,70,0.00,,---,0.00,19.00,VWS V14.01,2013-04-02 11:39:00,
2013-04-02 07:44:00,23.6,15.3,30.17,NW,306,0.0,1.0,70,0.00,,---,0.00,23.00,VWS V14.01,2013-04-02 11:44:00,
2013-04-02 07:49:00,23.6,15.3,30.17,NW,306,0.0,1.0,70,0.00,,---,0.00,32.00,VWS V14.01,2013-04-02 11:49:00,
2013-04-02 07:54:00,23.6,15.3,30.17,NW,306,1.0,1.0,70,0.00,,---,0.00,42.00,VWS V14.01,2013-04-02 11:54:00,
2013-04-02 07:59:00,23.7,15.7,30.17,NW,306,1.0,2.0,71,0.00,,---,0.00,54.00,VWS V14.01,2013-04-02 11:59:00,
2013-04-02 08:00:00,23.8,15.8,30.17,NW,306,2.0,2.0,71,0.00,,---,0.00,54.00,VWS V14.01,2013-04-02 12:00:00,
2013-04-02 08:04:00,23.9,16.2,30.17,NW,306,2.0,3.0,72,0.00,,---,0.00,70.00,VWS V14.01,2013-04-02 12:04:00,
2013-04-02 08:09:00,24.2,16.5,30.17,NW,304,0.0,3.0,72,0.00,,---,0.00,83.00,VWS V14.01,2013-04-02 12:09:00,
2013-04-02 08:14:00,24.5,16.8,30.18,WNW,297,3.0,4.0,72,0.00,,---,0.00,74.00,VWS V14.01,2013-04-02 12:14:00,
2013-04-02 08:19:00,24.8,17.1,30.17,WNW,297,1.0,4.0,72,0.00,,---,0.00,97.00,VWS V14.01,2013-04-02 12:19:00,
2013-04-02 08:24:00,25.2,17.5,30.18,WNW,295,2.0,4.0,72,0.00,,---,0.00,104.00,VWS V14.01,2013-04-02 12:24:00,
2013-04-02 08:29:00,25.6,17.8,30.18,WNW,290,3.0,4.0,72,0.00,,---,0.00,121.00,VWS V14.01,2013-04-02 12:29:00,
2013-04-02 08:30:00,25.6,17.8,30.18,West,267,3.0,5.0,72,0.00,,---,0.00,121.00,VWS V14.01,2013-04-02 12:30:00,
2013-04-02 08:34:00,25.9,17.8,30.18,West,267,3.0,4.0,71,0.00,,---,0.00,195.00,VWS V14.01,2013-04-02 12:34:00,
2013-04-02 08:39:00,26.3,18.2,30.18,West,281,3.0,5.0,71,0.00,,---,0.00,218.00,VWS V14.01,2013-04-02 12:39:00,
2013-04-02 08:44:00,26.8,18.3,30.18,WNW,284,2.0,6.0,70,0.00,,---,0.00,239.00,VWS V14.01,2013-04-02 12:44:00,
2013-04-02 08:49:00,27.2,18.0,30.18,West,273,4.0,6.0,68,0.00,,---,0.00,257.00,VWS V14.01,2013-04-02 12:49:00,
2013-04-02 08:54:00,27.7,18.2,30.18,West,278,3.0,6.0,67,0.00,,---,0.00,276.00,VWS V14.01,2013-04-02 12:54:00,
2013-04-02 08:59:00,28.1,17.9,30.18,NW,306,4.0,6.0,65,0.00,,---,0.00,294.00,VWS V14.01,2013-04-02 12:59:00,
2013-04-02 09:00:00,28.3,18.1,30.18,NW,304,3.0,6.0,65,0.00,,---,0.00,301.00,VWS V14.01,2013-04-02 13:00:00,
2013-04-02 09:04:00,28.6,18.0,30.18,West,272,6.0,7.0,64,0.00,,---,0.00,311.00,VWS V14.01,2013-04-02 13:04:00,
2013-04-02 09:09:00,28.8,17.8,30.18,WNW,292,1.0,9.0,63,0.00,,---,0.00,329.00,VWS V14.01,2013-04-02 13:09:00,
2013-04-02 09:14:00,29.1,18.1,30.18,WNW,284,3.0,9.0,63,0.00,,---,0.00,348.00,VWS V14.01,2013-04-02 13:14:00,
2013-04-02 09:19:00,29.4,17.2,30.19,West,275,7.0,10.0,60,0.00,,---,0.00,366.00,VWS V14.01,2013-04-02 13:19:00,
2013-04-02 09:24:00,29.6,17.0,30.18,West,271,2.0,10.0,59,0.00,,---,0.00,381.00,VWS V14.01,2013-04-02 13:24:00,
2013-04-02 09:29:00,30.1,17.9,30.18,NW,304,4.0,10.0,60,0.00,,---,0.00,401.00,VWS V14.01,2013-04-02 13:29:00,
2013-04-02 09:30:00,30.1,17.5,30.18,NW,311,4.0,10.0,59,0.00,,---,0.00,403.00,VWS V14.01,2013-04-02 13:30:00,
2013-04-02 09:34:00,30.3,16.9,30.18,WNW,294,7.0,9.0,57,0.00,,---,0.00,415.00,VWS V14.01,2013-04-02 13:34:00,
2013-04-02 09:39:00,30.5,16.3,30.18,WNW,289,1.0,9.0,55,0.00,,---,0.00,432.00,VWS V14.01,2013-04-02 13:39:00,
2013-04-02 09:44:00,30.7,16.5,30.18,WNW,298,4.0,9.0,55,0.00,,---,0.00,450.00,VWS V14.01,2013-04-02 13:44:00,
2013-04-02 09:49:00,31.0,16.7,30.19,WSW,255,5.0,11.0,55,0.00,,---,0.00,466.00,VWS V14.01,2013-04-02 13:49:00,
2013-04-02 09:54:00,31.1,17.2,30.19,WSW,252,1.0,11.0,56,0.00,,---,0.00,478.00,VWS V14.01,2013-04-02 13:54:00,
2013-04-02 09:59:00,31.3,17.4,30.19,West,271,3.0,11.0,56,0.00,,---,0.00,497.00,VWS V14.01,2013-04-02 13:59:00,
2013-04-02 10:00:00,31.3,17.4,30.19,West,271,5.0,11.0,56,0.00,,---,0.00,503.00,VWS V14.01,2013-04-02 14:00:00,
2013-04-02 10:04:00,31.5,18.0,30.19,NW,307,5.0,9.0,57,0.00,,---,0.00,524.00,VWS V14.01,2013-04-02 14:04:00,
2013-04-02 10:09:00,31.8,18.3,30.19,West,275,9.0,11.0,57,0.00,,---,0.00,545.00,VWS V14.01,2013-04-02 14:09:00,
2013-04-02 10:14:00,31.9,18.0,30.19,WSW,251,10.0,11.0,56,0.00,,---,0.00,559.00,VWS V14.01,2013-04-02 14:14:00,
2013-04-02 10:19:00,32.2,18.3,30.19,NNW,333,6.0,14.0,56,0.00,,---,0.00,591.00,VWS V14.01,2013-04-02 14:19:00,
2013-04-02 10:24:00,32.4,18.5,30.19,West,281,4.0,16.0,56,0.00,,---,0.00,666.00,VWS V14.01,2013-04-02 14:24:00,
2013-04-02 10:29:00,32.5,17.7,30.19,NNW,334,5.0,16.0,54,0.00,,---,0.00,647.00,VWS V14.01,2013-04-02 14:29:00,
2013-04-02 10:30:00,32.4,17.6,30.19,West,277,4.0,16.0,54,0.00,,---,0.00,673.00,VWS V14.01,2013-04-02 14:30:00,
2013-04-02 10:35:00,32.5,18.1,30.19,WSW,254,6.0,11.0,55,0.00,,---,0.00,682.00,VWS V14.01,2013-04-02 14:35:00,
2013-04-02 10:40:00,32.4,18.0,30.19,West,277,11.0,14.0,55,0.00,,---,0.00,745.00,VWS V14.01,2013-04-02 14:40:00,
2013-04-02 10:45:00,32.7,18.3,30.19,West,263,6.0,14.0,55,0.00,,---,0.00,777.00,VWS V14.01,2013-04-02 14:45:00,
2013-04-02 10:50:00,33.2,18.8,30.19,West,270,7.0,14.0,55,0.00,,---,0.00,777.00,VWS V14.01,2013-04-02 14:50:00,
2013-04-02 10:55:00,33.4,19.4,30.19,WNW,298,6.0,14.0,56,0.00,,---,0.00,777.00,VWS V14.01,2013-04-02 14:55:00,
2013-04-02 11:00:00,33.9,19.5,30.19,West,271,7.0,14.0,55,0.00,,---,0.00,584.00,VWS V14.01,2013-04-02 15:00:00,
2013-04-02 11:05:00,34.1,19.2,30.19,West,279,2.0,9.0,54,0.00,,---,0.00,854.00,VWS V14.01,2013-04-02 15:05:00,
2013-04-02 11:10:00,34.4,19.5,30.19,WSW,252,4.0,14.0,54,0.00,,---,0.00,352.00,VWS V14.01,2013-04-02 15:10:00,
2013-04-02 11:15:00,34.3,18.5,30.19,WNW,299,2.0,14.0,52,0.00,,---,0.00,257.00,VWS V14.01,2013-04-02 15:15:00,
2013-04-02 11:20:00,34.1,19.2,30.19,NW,309,3.0,14.0,54,0.00,,---,0.00,283.00,VWS V14.01,2013-04-02 15:20:00,
2013-04-02 11:25:00,34.1,18.8,30.19,WSW,255,10.0,15.0,53,0.00,,---,0.00,345.00,VWS V14.01,2013-04-02 15:25:00,
2013-04-02 11:30:00,33.9,18.6,30.19,West,259,7.0,15.0,53,0.00,,---,0.00,287.00,VWS V14.01,2013-04-02 15:30:00,
2013-04-02 11:35:00,33.9,18.1,30.19,West,263,10.0,12.0,52,0.00,,---,0.00,1004.00,VWS V14.01,2013-04-02 15:35:00,
2013-04-02 11:40:00,34.1,18.8,30.19,West,274,10.0,15.0,53,0.00,,---,0.00,380.00,VWS V14.01,2013-04-02 15:40:00,
2013-04-02 11:45:00,34.2,18.9,30.19,SW,232,7.0,15.0,53,0.00,,---,0.00,1034.00,VWS V14.01,2013-04-02 15:45:00,
2013-04-02 11:50:00,34.6,19.2,30.19,WSW,240,5.0,15.0,53,0.00,,---,0.00,912.00,VWS V14.01,2013-04-02 15:50:00,
2013-04-02 11:55:00,34.8,19.4,30.19,West,266,8.0,15.0,53,0.00,,---,0.00,366.00,VWS V14.01,2013-04-02 15:55:00,
2013-04-02 12:00:00,35.1,20.1,30.19,West,272,8.0,15.0,54,0.00,,---,0.00,970.00,VWS V14.01,2013-04-02 16:00:00,
2013-04-02 12:05:00,35.5,19.2,30.19,WSW,246,8.0,17.0,51,0.00,,---,0.00,345.00,VWS V14.01,2013-04-02 16:05:00,
2013-04-02 12:10:00,35.5,19.2,30.19,West,270,10.0,17.0,51,0.00,,---,0.00,327.00,VWS V14.01,2013-04-02 16:10:00,
2013-04-02 12:15:00,35.5,19.6,30.19,SW,235,9.0,17.0,52,0.00,,---,0.00,533.00,VWS V14.01,2013-04-02 16:15:00,
2013-04-02 12:21:00,35.7,19.8,30.19,WNW,289,7.0,17.0,52,0.00,,---,0.00,418.00,VWS V14.01,2013-04-02 16:21:00,
2013-04-02 12:26:00,36.4,20.5,30.19,West,266,6.0,17.0,52,0.00,,---,0.00,1088.00,VWS V14.01,2013-04-02 16:26:00,
2013-04-02 12:30:00,36.4,19.1,30.19,West,269,7.0,18.0,49,0.00,,---,0.00,323.00,VWS V14.01,2013-04-02 16:30:00,
2013-04-02 12:31:00,36.3,19.0,30.19,West,277,10.0,14.0,49,0.00,,---,0.00,309.00,VWS V14.01,2013-04-02 16:31:00,
2013-04-02 12:36:00,36.0,19.2,30.19,WSW,244,6.0,14.0,50,0.00,,---,0.00,1020.00,VWS V14.01,2013-04-02 16:36:00,
2013-04-02 12:41:00,36.0,18.7,30.18,NW,307,4.0,14.0,49,0.00,,---,0.00,241.00,VWS V14.01,2013-04-02 16:41:00,
2013-04-02 12:46:00,35.9,19.1,30.18,West,271,2.0,14.0,50,0.00,,---,0.00,274.00,VWS V14.01,2013-04-02 16:46:00,
2013-04-02 12:51:00,35.8,19.0,30.18,WNW,286,11.0,14.0,50,0.00,,---,0.00,292.00,VWS V14.01,2013-04-02 16:51:00,
2013-04-02 12:56:00,36.0,19.2,30.18,NNW,327,5.0,17.0,50,0.00,,---,0.00,856.00,VWS V14.01,2013-04-02 16:56:00,
2013-04-02 13:00:00,36.2,19.8,30.18,West,264,8.0,17.0,51,0.00,,---,0.00,417.00,VWS V14.01,2013-04-02 17:00:00,
2013-04-02 13:01:00,36.3,19.9,30.18,WNW,286,10.0,12.0,51,0.00,,---,0.00,420.00,VWS V14.01,2013-04-02 17:01:00,
2013-04-02 13:06:00,36.6,20.2,30.18,NW,325,12.0,15.0,51,0.00,,---,0.00,417.00,VWS V14.01,2013-04-02 17:06:00,
2013-04-02 13:12:00,36.6,18.8,30.18,WSW,242,9.0,17.0,48,0.00,,---,0.00,322.00,VWS V14.01,2013-04-02 17:12:00,
2013-04-02 13:17:00,36.5,19.2,30.18,WNW,292,7.0,17.0,49,0.00,,---,0.00,429.00,VWS V14.01,2013-04-02 17:17:00,
2013-04-02 13:22:00,37.2,20.8,30.17,NW,307,11.0,17.0,51,0.00,,---,0.00,413.00,VWS V14.01,2013-04-02 17:22:00,
2013-04-02 13:27:00,37.4,20.0,30.17,NW,305,6.0,17.0,49,0.00,,---,0.00,429.00,VWS V14.01,2013-04-02 17:27:00,
2013-04-02 13:30:00,37.5,20.1,30.17,WSW,254,13.0,17.0,49,0.00,,---,0.00,378.00,VWS V14.01,2013-04-02 17:30:00,
2013-04-02 13:32:00,37.4,19.0,30.17,WSW,242,4.0,13.0,47,0.00,,---,0.00,485.00,VWS V14.01,2013-04-02 17:32:00,
2013-04-02 13:37:00,37.3,18.9,30.17,WNW,284,6.0,14.0,47,0.00,,---,0.00,591.00,VWS V14.01,2013-04-02 17:37:00,
2013-04-02 13:42:00,37.5,19.6,30.16,West,268,9.0,16.0,48,0.00,,---,0.00,408.00,VWS V14.01,2013-04-02 17:42:00,
2013-04-02 13:47:00,38.2,20.7,30.16,West,267,6.0,16.0,49,0.00,,---,0.00,1051.00,VWS V14.01,2013-04-02 17:47:00,
2013-04-02 13:52:00,38.4,19.4,30.16,WSW,251,15.0,17.0,46,0.00,,---,0.00,302.00,VWS V14.01,2013-04-02 17:52:00,
2013-04-02 13:57:00,37.9,19.0,30.16,WNW,302,5.0,17.0,46,0.00,,---,0.00,304.00,VWS V14.01,2013-04-02 17:57:00,
2013-04-02 14:00:00,37.7,19.3,30.16,WNW,297,6.0,17.0,47,0.00,,---,0.00,360.00,VWS V14.01,2013-04-02 18:00:00,
2013-04-02 14:03:00,37.7,18.8,30.16,WNW,290,4.0,11.0,46,0.00,,---,0.00,385.00,VWS V14.01,2013-04-02 18:03:00,
2013-04-02 14:08:00,37.9,21.4,30.16,WSW,251,16.0,18.0,51,0.00,,---,0.00,1107.00,VWS V14.01,2013-04-02 18:08:00,
2013-04-02 14:13:00,38.1,19.7,30.15,SW,236,6.0,18.0,47,0.00,,---,0.00,350.00,VWS V14.01,2013-04-02 18:13:00,
2013-04-02 14:18:00,38.4,19.9,30.15,NW,311,10.0,18.0,47,0.00,,---,0.00,362.00,VWS V14.01,2013-04-02 18:18:00,
2013-04-02 14:23:00,38.4,19.4,30.15,WSW,255,9.0,18.0,46,0.00,,---,0.00,362.00,VWS V14.01,2013-04-02 18:23:00,
2013-04-02 14:28:00,38.7,20.7,30.15,WSW,249,13.0,18.0,48,0.00,,---,0.00,1097.00,VWS V14.01,2013-04-02 18:28:00,
2013-04-02 14:30:00,39.0,20.5,30.15,West,262,13.0,18.0,47,0.00,,---,0.00,359.00,VWS V14.01,2013-04-02 18:30:00,
2013-04-02 14:33:00,39.2,20.7,30.15,WSW,250,17.0,17.0,47,0.00,,---,0.00,359.00,VWS V14.01,2013-04-02 18:33:00,
2013-04-02 14:38:00,39.5,20.5,30.15,WSW,240,17.0,19.0,46,0.00,,---,0.00,1107.00,VWS V14.01,2013-04-02 18:38:00,
2013-04-02 14:43:00,39.8,20.7,30.14,NW,309,15.0,19.0,46,0.00,,---,0.00,1004.00,VWS V14.01,2013-04-02 18:43:00,
2013-04-02 14:48:00,40.4,20.8,30.14,WSW,254,9.0,19.0,45,0.00,,---,0.00,251.00,VWS V14.01,2013-04-02 18:48:00,
2013-04-02 14:53:00,40.4,21.3,30.14,WSW,244,11.0,19.0,46,0.00,,---,0.00,958.00,VWS V14.01,2013-04-02 18:53:00,
2013-04-02 14:58:00,40.5,19.8,30.14,West,275,9.0,19.0,43,0.00,,---,0.00,946.00,VWS V14.01,2013-04-02 18:58:00,
2013-04-02 15:00:00,40.4,20.2,30.14,West,270,10.0,19.0,44,0.00,,---,0.00,946.00,VWS V14.01,2013-04-02 19:00:00,
2013-04-02 15:03:00,40.4,20.8,30.14,WSW,253,11.0,13.0,45,0.00,,---,0.00,946.00,VWS V14.01,2013-04-02 19:03:00,
2013-04-02 15:08:00,40.6,20.9,30.13,WSW,247,15.0,18.0,45,0.00,,---,0.00,990.00,VWS V14.01,2013-04-02 19:08:00,
2013-04-02 15:13:00,40.9,20.1,30.13,West,268,9.0,18.0,43,0.00,,---,0.00,981.00,VWS V14.01,2013-04-02 19:13:00,
2013-04-02 15:18:00,41.0,20.8,30.13,WNW,293,11.0,20.0,44,0.00,,---,0.00,900.00,VWS V14.01,2013-04-02 19:18:00,
2013-04-02 15:23:00,40.6,18.8,30.13,WNW,300,3.0,20.0,41,0.00,,---,0.00,216.00,VWS V14.01,2013-04-02 19:23:00,
2013-04-02 15:28:00,40.2,20.0,30.13,NNW,329,7.0,20.0,44,0.00,,---,0.00,970.00,VWS V14.01,2013-04-02 19:28:00,
2013-04-02 15:30:00,40.3,19.6,30.13,NW,312,13.0,20.0,43,0.00,,---,0.00,991.00,VWS V14.01,2013-04-02 19:30:00,
2013-04-02 15:33:00,40.7,21.0,30.12,West,271,8.0,16.0,45,0.00,,---,0.00,954.00,VWS V14.01,2013-04-02 19:33:00,
2013-04-02 15:38:00,41.3,21.6,30.12,NW,322,9.0,16.0,45,0.00,,---,0.00,937.00,VWS V14.01,2013-04-02 19:38:00,
2013-04-02 15:43:00,41.5,20.7,30.12,West,276,5.0,16.0,43,0.00,,---,0.00,907.00,VWS V14.01,2013-04-02 19:43:00,
2013-04-02 15:48:00,42.0,21.7,30.12,WNW,293,5.0,16.0,44,0.00,,---,0.00,253.00,VWS V14.01,2013-04-02 19:48:00,
2013-04-02 15:54:00,41.5,19.0,30.12,WSW,248,7.0,16.0,40,0.00,,---,0.00,399.00,VWS V14.01,2013-04-02 19:54:00,
2013-04-02 15:59:00,40.9,18.5,30.12,West,273,12.0,20.0,40,0.00,,---,0.00,207.00,VWS V14.01,2013-04-02 19:59:00,
2013-04-02 16:00:00,40.7,18.9,30.12,NW,317,6.0,20.0,41,0.00,,---,0.00,200.00,VWS V14.01,2013-04-02 20:00:00,
2013-04-02 16:04:00,40.5,18.7,30.12,West,281,7.0,10.0,41,0.00,,---,0.00,192.00,VWS V14.01,2013-04-02 20:04:00,
2013-04-02 16:09:00,40.7,20.5,30.12,NW,317,14.0,15.0,44,0.00,,---,0.00,784.00,VWS V14.01,2013-04-02 20:09:00,
2013-04-02 16:14:00,40.9,19.6,30.12,West,264,12.0,15.0,42,0.00,,---,0.00,167.00,VWS V14.01,2013-04-02 20:14:00,
2013-04-02 16:19:00,40.6,18.8,30.12,WNW,296,3.0,15.0,41,0.00,,---,0.00,255.00,VWS V14.01,2013-04-02 20:19:00,
2013-04-02 16:24:00,40.4,18.6,30.12,WSW,244,3.0,16.0,41,0.00,,---,0.00,193.00,VWS V14.01,2013-04-02 20:24:00,
2013-04-02 16:29:00,40.6,19.3,30.12,WNW,302,11.0,16.0,42,0.00,,---,0.00,742.00,VWS V14.01,2013-04-02 20:29:00,
2013-04-02 16:30:00,40.7,18.9,30.12,WNW,302,4.0,16.0,41,0.00,,---,0.00,731.00,VWS V14.01,2013-04-02 20:30:00,
2013-04-02 16:34:00,41.1,19.8,30.12,WSW,252,13.0,17.0,42,0.00,,---,0.00,541.00,VWS V14.01,2013-04-02 20:34:00,
2013-04-02 16:39:00,41.2,18.7,30.12,West,277,3.0,17.0,40,0.00,,---,0.00,197.00,VWS V14.01,2013-04-02 20:39:00,
2013-04-02 16:44:00,41.2,18.7,30.12,WSW,255,6.0,17.0,40,0.00,,---,0.00,671.00,VWS V14.01,2013-04-02 20:44:00,
2013-04-02 16:49:00,41.5,19.0,30.12,WNW,296,10.0,17.0,40,0.00,,---,0.00,642.00,VWS V14.01,2013-04-02 20:49:00,
2013-04-02 16:54:00,41.3,17.6,30.12,West,274,10.0,17.0,38,0.00,,---,0.00,151.00,VWS V14.01,2013-04-02 20:54:00,
2013-04-02 16:59:00,41.0,18.0,30.12,NW,312,10.0,17.0,39,0.00,,---,0.00,151.00,VWS V14.01,2013-04-02 20:59:00,
2013-04-02 17:00:00,40.9,17.9,30.12,WNW,303,3.0,17.0,39,0.00,,---,0.00,251.00,VWS V14.01,2013-04-02 21:00:00,
2013-04-02 17:04:00,40.9,18.5,30.13,West,270,7.0,13.0,40,0.00,,---,0.00,139.00,VWS V14.01,2013-04-02 21:04:00,
2013-04-02 17:10:00,40.6,18.8,30.13,West,271,5.0,13.0,41,0.00,,---,0.00,251.00,VWS V14.01,2013-04-02 21:10:00,
2013-04-02 17:15:00,40.9,19.0,30.13,West,268,5.0,13.0,41,0.00,,---,0.00,582.00,VWS V14.01,2013-04-02 21:15:00,
2013-04-02 17:20:00,41.1,18.6,30.13,West,270,7.0,13.0,40,0.00,,---,0.00,141.00,VWS V14.01,2013-04-02 21:20:00,
2013-04-02 17:25:00,41.2,18.7,30.12,West,269,6.0,14.0,40,0.00,,---,0.00,603.00,VWS V14.01,2013-04-02 21:25:00,
2013-04-02 17:30:00,41.9,19.4,30.12,WNW,286,1.0,14.0,40,0.00,,---,0.00,557.00,VWS V14.01,2013-04-02 21:30:00,
2013-04-02 17:35:00,42.3,18.5,30.12,West,271,5.0,14.0,38,0.00,,---,0.00,176.00,VWS V14.01,2013-04-02 21:35:00,
2013-04-02 17:40:00,42.1,17.7,30.12,NW,307,10.0,14.0,37,0.00,,---,0.00,541.00,VWS V14.01,2013-04-02 21:40:00,
2013-04-02 17:45:00,42.1,19.5,30.13,WNW,286,5.0,16.0,40,0.00,,---,0.00,139.00,VWS V14.01,2013-04-02 21:45:00,
2013-04-02 17:50:00,42.0,19.5,30.13,WNW,284,5.0,16.0,40,0.00,,---,0.00,364.00,VWS V14.01,2013-04-02 21:50:00,
2013-04-02 17:55:00,41.9,18.8,30.13,NW,304,5.0,16.0,39,0.00,,---,0.00,494.00,VWS V14.01,2013-04-02 21:55:00,
2013-04-02 18:00:00,41.8,19.3,30.13,NW,321,6.0,16.0,40,0.00,,---,0.00,132.00,VWS V14.01,2013-04-02 22:00:00,
2013-04-02 18:05:00,41.5,20.1,30.13,WNW,293,3.0,13.0,42,0.00,,---,0.00,415.00,VWS V14.01,2013-04-02 22:05:00,
2013-04-02 18:10:00,41.7,19.8,30.13,WNW,292,5.0,13.0,41,0.00,,---,0.00,357.00,VWS V14.01,2013-04-02 22:10:00,
2013-04-02 18:15:00,41.8,19.3,30.13,West,274,10.0,13.0,40,0.00,,---,0.00,142.00,VWS V14.01,2013-04-02 22:15:00,
2013-04-02 18:20:00,41.5,19.6,30.13,West,271,1.0,13.0,41,0.00,,---,0.00,121.00,VWS V14.01,2013-04-02 22:20:00,
2013-04-02 18:25:00,41.2,19.3,30.13,NW,321,5.0,13.0,41,0.00,,---,0.00,309.00,VWS V14.01,2013-04-02 22:25:00,
2013-04-02 18:30:00,41.1,19.2,30.14,WNW,290,10.0,18.0,41,0.00,,---,0.00,225.00,VWS V14.01,2013-04-02 22:30:00,
2013-04-02 18:35:00,40.9,19.0,30.14,WNW,287,9.0,12.0,41,0.00,,---,0.00,202.00,VWS V14.01,2013-04-02 22:35:00,
2013-04-02 18:40:00,40.7,20.0,30.14,WNW,288,5.0,12.0,43,0.00,,---,0.00,248.00,VWS V14.01,2013-04-02 22:40:00,
2013-04-02 18:45:00,40.7,19.4,30.14,NW,311,8.0,12.0,42,0.00,,---,0.00,220.00,VWS V14.01,2013-04-02 22:45:00,
2013-04-02 18:50:00,40.7,19.4,30.14,WNW,298,5.0,12.0,42,0.00,,---,0.00,202.00,VWS V14.01,2013-04-02 22:50:00,
2013-04-02 18:55:00,40.7,20.0,30.14,WNW,290,5.0,12.0,43,0.00,,---,0.00,195.00,VWS V14.01,2013-04-02 22:55:00,
2013-04-02 19:00:00,40.7,19.4,30.15,West,259,10.0,15.0,42,0.00,,---,0.00,114.00,VWS V14.01,2013-04-02 23:00:00,
2013-04-02 19:01:00,40.6,19.3,30.15,NW,325,4.0,10.0,42,0.00,,---,0.00,128.00,VWS V14.01,2013-04-02 23:01:00,
2013-04-02 19:06:00,40.3,19.6,30.15,WNW,296,6.0,13.0,43,0.00,,---,0.00,120.00,VWS V14.01,2013-04-02 23:06:00,
2013-04-02 19:11:00,40.0,19.3,30.15,WNW,287,2.0,13.0,43,0.00,,---,0.00,102.00,VWS V14.01,2013-04-02 23:11:00,
2013-04-02 19:16:00,39.8,19.7,30.15,WNW,298,4.0,13.0,44,0.00,,---,0.00,70.00,VWS V14.01,2013-04-02 23:16:00,
2013-04-02 19:21:00,39.4,19.3,30.15,WNW,301,10.0,13.0,44,0.00,,---,0.00,63.00,VWS V14.01,2013-04-02 23:21:00,
2013-04-02 19:27:00,39.1,19.0,30.15,NW,323,6.0,13.0,44,0.00,,---,0.00,47.00,VWS V14.01,2013-04-02 23:27:00,
2013-04-02 19:30:00,38.9,18.9,30.15,NW,317,3.0,13.0,44,0.00,,---,0.00,30.00,VWS V14.01,2013-04-02 23:30:00,
2013-04-02 19:32:00,38.8,19.3,30.16,NW,308,5.0,5.0,45,0.00,,---,0.00,21.00,VWS V14.01,2013-04-02 23:32:00,
2013-04-02 19:37:00,38.5,19.5,30.15,NW,306,2.0,5.0,46,0.00,,---,0.00,19.00,VWS V14.01,2013-04-02 23:37:00,
2013-04-02 19:42:00,38.2,19.8,30.16,NW,318,9.0,9.0,47,0.00,,---,0.00,16.00,VWS V14.01,2013-04-02 23:42:00,
2013-04-02 19:47:00,37.9,19.5,30.16,NW,319,3.0,10.0,47,0.00,,---,0.00,11.00,VWS V14.01,2013-04-02 23:47:00,
2013-04-02 19:52:00,37.7,19.3,30.16,NW,317,2.0,10.0,47,0.00,,---,0.00,7.00,VWS V14.01,2013-04-02 23:52:00,
2013-04-02 19:57:00,37.5,19.1,30.16,NW,322,5.0,10.0,47,0.00,,---,0.00,0.00,VWS V14.01,2013-04-02 23:57:00,
2013-04-02 20:00:00,37.4,19.0,30.16,NW,315,4.0,10.0,47,0.00,,---,0.00,0.00,VWS V14.01,2013-04-03 00:00:00,
2013-04-02 20:02:00,37.3,19.4,30.16,NW,315,2.0,4.0,48,0.00,,---,0.00,0.00,VWS V14.01,2013-04-03 00:02:00,
2013-04-02 20:07:00,37.1,19.2,30.16,NW,321,3.0,6.0,48,0.00,,---,0.00,0.00,VWS V14.01,2013-04-03 00:07:00,
2013-04-02 20:12:00,36.9,19.1,30.16,NW,325,0.0,6.0,48,0.00,,---,0.00,0.00,VWS V14.01,2013-04-03 00:12:00,
2013-04-02 20:17:00,36.7,19.4,30.16,NW,325,0.0,6.0,49,0.00,,---,0.00,0.00,VWS V14.01,2013-04-03 00:17:00,
2013-04-02 20:22:00,36.5,19.2,30.17,NW,325,1.0,6.0,49,0.00,,---,0.00,0.00,VWS V14.01,2013-04-03 00:22:00,
2013-04-02 20:27:00,36.3,19.0,30.17,NW,325,0.0,6.0,49,0.00,,---,0.00,0.00,VWS V14.01,2013-04-03 00:27:00,
2013-04-02 20:30:00,36.2,18.9,30.17,NW,325,0.0,6.0,49,0.00,,---,0.00,0.00,VWS V14.01,2013-04-03 00:30:00,
2013-04-02 20:32:00,36.2,19.4,30.17,NW,325,0.0,1.0,50,0.00,,---,0.00,0.00,VWS V14.01,2013-04-03 00:32:00,
2013-04-02 20:37:00,36.0,19.2,30.17,NW,325,1.0,3.0,50,0.00,,---,0.00,0.00,VWS V14.01,2013-04-03 00:37:00,
2013-04-02 20:43:00,35.8,19.0,30.17,NW,325,0.0,4.0,50,0.00,,---,0.00,0.00,VWS V14.01,2013-04-03 00:43:00,
2013-04-02 20:48:00,35.6,18.8,30.17,NW,325,0.0,4.0,50,0.00,,---,0.00,0.00,VWS V14.01,2013-04-03 00:48:00,
2013-04-02 20:53:00,35.5,18.7,30.17,NW,325,0.0,4.0,50,0.00,,---,0.00,0.00,VWS V14.01,2013-04-03 00:53:00,
2013-04-02 20:58:00,35.3,19.0,30.18,NW,325,0.0,4.0,51,0.00,,---,0.00,0.00,VWS V14.01,2013-04-03 00:58:00,
2013-04-02 21:00:00,35.2,18.9,30.18,NW,325,0.0,4.0,51,0.00,,---,0.00,0.00,VWS V14.01,2013-04-03 01:00:00,
2013-04-02 21:03:00,35.1,18.8,30.17,NW,325,0.0,0.0,51,0.00,,---,0.00,0.00,VWS V14.01,2013-04-03 01:03:00,
2013-04-02 21:08:00,34.9,18.6,30.17,NW,325,0.0,0.0,51,0.00,,---,0.00,0.00,VWS V14.01,2013-04-03 01:08:00,
2013-04-02 21:13:00,34.7,18.4,30.17,NW,325,0.0,0.0,51,0.00,,---,0.00,0.00,VWS V14.01,2013-04-03 01:13:00,
2013-04-02 21:18:00,34.5,18.7,30.18,NW,325,0.0,0.0,52,0.00,,---,0.00,0.00,VWS V14.01,2013-04-03 01:18:00,
2013-04-02 21:23:00,34.3,18.5,30.18,NW,325,0.0,0.0,52,0.00,,---,0.00,0.00,VWS V14.01,2013-04-03 01:23:00,
2013-04-02 21:28:00,34.1,18.8,30.18,NW,325,0.0,0.0,53,0.00,,---,0.00,0.00,VWS V14.01,2013-04-03 01:28:00,
2013-04-02 21:30:00,34.0,18.7,30.18,NW,325,0.0,0.0,53,0.00,,---,0.00,0.00,VWS V14.01,2013-04-03 01:30:00,
2013-04-02 21:33:00,33.9,18.6,30.18,NW,325,0.0,1.0,53,0.00,,---,0.00,0.00,VWS V14.01,2013-04-03 01:33:00,
2013-04-02 21:38:00,33.8,18.5,30.18,NW,325,0.0,1.0,53,0.00,,---,0.00,0.00,VWS V14.01,2013-04-03 01:38:00,
2013-04-02 21:43:00,33.7,18.4,30.18,NW,325,0.0,1.0,53,0.00,,---,0.00,0.00,VWS V14.01,2013-04-03 01:43:00,
2013-04-02 21:48:00,33.7,18.4,30.19,NW,325,0.0,1.0,53,0.00,,---,0.00,0.00,VWS V14.01,2013-04-03 01:48:00,
2013-04-02 21:53:00,33.8,18.5,30.19,NW,325,1.0,1.0,53,0.00,,---,0.00,0.00,VWS V14.01,2013-04-03 01:53:00,
2013-04-02 21:58:00,33.8,18.5,30.19,NW,325,0.0,2.0,53,0.00,,---,0.00,0.00,VWS V14.01,2013-04-03 01:58:00,
2013-04-02 22:00:00,33.9,18.6,30.19,NW,325,1.0,2.0,53,0.00,,---,0.00,0.00,VWS V14.01,2013-04-03 02:00:00,
2013-04-02 22:03:00,33.9,18.6,30.18,NW,323,0.0,2.0,53,0.00,,---,0.00,0.00,VWS V14.01,2013-04-03 02:03:00,
2013-04-02 22:08:00,33.9,19.0,30.18,NW,319,1.0,3.0,54,0.00,,---,0.00,0.00,VWS V14.01,2013-04-03 02:08:00,
2013-04-02 22:14:00,34.0,19.1,30.18,WNW,299,2.0,3.0,54,0.00,,---,0.00,0.00,VWS V14.01,2013-04-03 02:14:00,
2013-04-02 22:19:00,34.0,19.1,30.18,West,281,3.0,4.0,54,0.00,,---,0.00,0.00,VWS V14.01,2013-04-03 02:19:00,
2013-04-02 22:24:00,34.0,19.1,30.18,West,263,2.0,4.0,54,0.00,,---,0.00,0.00,VWS V14.01,2013-04-03 02:24:00,
2013-04-02 22:29:00,34.0,19.1,30.18,West,263,2.0,4.0,54,0.00,,---,0.00,0.00,VWS V14.01,2013-04-03 02:29:00,
2013-04-02 22:30:00,34.0,19.1,30.18,West,263,1.0,4.0,54,0.00,,---,0.00,0.00,VWS V14.01,2013-04-03 02:30:00,
2013-04-02 22:34:00,34.0,19.1,30.18,West,263,0.0,4.0,54,0.00,,---,0.00,0.00,VWS V14.01,2013-04-03 02:34:00,
2013-04-02 22:39:00,34.0,19.5,30.19,West,262,1.0,4.0,55,0.00,,---,0.00,0.00,VWS V14.01,2013-04-03 02:39:00,
2013-04-02 22:44:00,33.9,19.5,30.19,West,262,2.0,4.0,55,0.00,,---,0.00,0.00,VWS V14.01,2013-04-03 02:44:00,
2013-04-02 22:49:00,33.8,19.4,30.19,West,262,0.0,4.0,55,0.00,,---,0.00,0.00,VWS V14.01,2013-04-03 02:49:00,
2013-04-02 22:54:00,33.5,19.5,30.19,West,262,0.0,4.0,56,0.00,,---,0.00,0.00,VWS V14.01,2013-04-03 02:54:00,
2013-04-02 22:59:00,33.3,19.3,30.19,West,262,0.0,4.0,56,0.00,,---,0.00,0.00,VWS V14.01,2013-04-03 02:59:00,
2013-04-02 23:00:00,33.3,19.7,30.19,West,262,0.0,4.0,57,0.00,,---,0.00,0.00,VWS V14.01,2013-04-03 03:00:00,
2013-04-02 23:04:00,33.0,19.4,30.19,West,263,0.0,0.0,57,0.00,,---,0.00,0.00,VWS V14.01,2013-04-03 03:04:00,
2013-04-02 23:09:00,32.6,19.5,30.19,West,262,0.0,0.0,58,0.00,,---,0.00,0.00,VWS V14.01,2013-04-03 03:09:00,
2013-04-02 23:14:00,32.3,19.2,30.19,West,262,0.0,0.0,58,0.00,,---,0.00,0.00,VWS V14.01,2013-04-03 03:14:00,
2013-04-02 23:19:00,31.8,19.1,30.19,West,262,0.0,0.0,59,0.00,,---,0.00,0.00,VWS V14.01,2013-04-03 03:19:00,
2013-04-02 23:25:00,31.4,19.1,30.20,West,262,0.0,0.0,60,0.00,,---,0.00,0.00,VWS V14.01,2013-04-03 03:25:00,
2013-04-02 23:30:00,31.0,19.1,30.20,West,262,0.0,0.0,61,0.00,,---,0.00,0.00,VWS V14.01,2013-04-03 03:30:00,
2013-04-02 23:35:00,30.6,19.1,30.20,West,262,0.0,0.0,62,0.00,,---,0.00,0.00,VWS V14.01,2013-04-03 03:35:00,
2013-04-02 23:40:00,30.3,19.2,30.20,West,262,0.0,0.0,63,0.00,,---,0.00,0.00,VWS V14.01,2013-04-03 03:40:00,
2013-04-02 23:45:00,30.0,19.0,30.21,West,263,0.0,1.0,63,0.00,,---,0.00,0.00,VWS V14.01,2013-04-03 03:45:00,
2013-04-02 23:50:00,29.9,19.2,30.21,West,263,1.0,3.0,64,0.00,,---,0.00,0.00,VWS V14.01,2013-04-03 03:50:00,
2013-04-02 23:55:00,30.0,19.0,30.21,West,263,0.0,3.0,63,0.00,,---,0.00,0.00,VWS V14.01,2013-04-03 03:55:00,